[[{"header":{"parameterUnit":"m.s-1","parameterCategory":1,"la1":30.2991,"la2":30.254,"lo1":-89.0895,"lo2":-89.0444,"dy":0.0017,"dx":0.0017,"nx":28,"ny":28,"refTime":"2023-09-21T09:00:00:Z","depth":0,"parameterNumber":2,"parameterNumberName":"U-component_of_WINDS"},"data":[0,0,0,0,0,0,0,0,0,0,0,0,0,0,0,0,0,0,0,0,0,0,0,0,0,0,0,0,0,0,0,0,0,0,0,0,0,0,0,0,0,0,0,0,0,0,0,0,0,0,0,0,0,0,0,0,0,0,-3.8869,-3.8871,0,-3.9015,-3.9017,-3.9018,-3.8974,-3.8971,-3.8968,-3.8965,-3.9115,-3.9122,-3.9128,0,0,0,0,0,0,0,0,0,0,0,0,0,-3.855,-3.8556,-3.8869,-3.8871,-3.8873,-3.9015,-3.9017,-3.9019,-3.8975,-3.8971,-3.8967,-3.8964,-3.9113,-3.9121,-3.9129,0,0,0,0,0,0,0,0,0,0,0,0,0,-3.8691,-3.8558,-3.8869,-3.8868,-3.8869,-3.9015,-3.9017,-3.9019,-3.8975,-3.8971,-3.8966,-3.8962,-3.911,-3.912,-3.913,-3.9285,0,0,-3.9162,-3.9166,0,0,0,0,0,0,0,0,-3.8683,-3.8703,-3.8866,-3.8868,-3.887,-3.8972,-3.8959,-3.9109,-3.8977,-3.8935,-3.8965,-3.896,-3.9071,-3.9084,-3.9122,-3.9292,-3.9299,-3.9162,-3.9169,-3.9173,-3.9176,0,0,0,0,0,0,0,-3.8674,-3.8697,-3.8927,-3.8868,-3.8871,-3.8859,-3.8874,-3.8987,-3.9027,-3.8938,-3.8935,-3.8953,-3.9071,-3.9112,-3.9125,-3.9301,-3.9162,-3.9171,-3.9178,-3.9182,-3.9604,-3.9609,0,0,0,0,0,0,-3.8663,-3.8689,-3.8922,-3.8931,-3.8763,-3.8869,-3.8886,-3.8944,-3.9026,-3.9034,-3.8957,-3.8951,-3.9097,-3.9113,-3.913,-3.9315,-3.9173,-3.9183,-3.9188,-3.9599,-3.9605,-3.961,0,0,0,0,0,0,-3.8656,-3.8684,-3.8916,-3.8809,-3.8838,-3.8879,-3.8945,-3.8949,-3.899,-3.904,-3.9047,-3.8992,-3.9094,-3.9116,-3.9246,-3.932,-3.9187,-3.9197,-3.9593,-3.9601,-3.9608,-3.9689,0,0,0,0,0,0,-3.8647,-3.8682,-3.8742,-3.8811,-3.8844,-3.9031,-3.8949,-3.8955,-3.9007,-3.9,-3.9074,-3.9082,-3.9092,-3.9231,-3.9257,-3.9332,-3.9205,-3.9586,-3.9596,-3.9605,-3.968,-3.9698,-3.9714,0,0,0,0,0,-3.8636,-3.876,-3.8745,-3.8774,-3.892,-3.9035,-3.9054,-3.9063,-3.9014,-3.9074,-3.9105,-3.9079,-3.9308,-3.9245,-3.9273,-3.9353,-3.9582,-3.9593,-3.9604,-3.9672,-3.9694,-3.9713,0,0,0,0,0,0,-3.8699,-3.8769,-3.8754,-3.8903,-3.8964,-3.9028,-3.9104,-3.9087,-3.9163,-3.9153,-3.9161,-3.9178,-3.9312,-3.9345,-3.9274,-3.9506,-3.9437,-3.9455,-3.9479,-3.9501,-3.9518,-3.9506,-3.9213,0,0,0,0,0,-3.873,-3.8818,-3.8874,-3.9001,-3.9032,-3.9063,-3.9114,-3.9115,-3.9178,-3.9203,-3.9245,-3.9307,-3.9392,-3.9448,-3.953,-3.9684,-3.9698,-3.9752,-3.9769,-3.9783,-3.9798,-3.988,-3.9904,-3.9648,-3.9648,-3.9647,0,0,-3.8795,-3.8844,-3.89,-3.9015,-3.9062,-3.9152,-3.9085,-3.9184,-3.9251,-3.9219,-3.9344,-3.9377,-3.9446,-3.9589,-3.9654,-3.9621,-3.9872,-3.9798,-3.9808,-3.9816,-3.9894,-3.9918,-3.994,-3.9655,-3.9654,-3.9653,0,0,-3.8961,-3.9007,-3.9117,-3.9165,-3.9237,-3.9256,-3.9282,-3.9349,-3.9369,-3.9495,-3.9472,-3.9551,-3.9699,-3.9748,-3.9793,-3.9975,-3.9953,-4.0001,-4.0091,-4.017,-4.019,-4.0208,-4.0271,-4.0294,-4.0016,-4.0016,-4.0016,0,-3.9033,-3.9169,-3.9175,-3.9276,-3.9327,-3.9301,-3.9411,-3.9457,-3.9552,-3.9587,-3.9549,-3.9732,-3.9777,-3.9929,-3.9973,-4.0011,-4.004,-3.9993,-4.0187,-4.0205,-4.0222,-4.0282,-4.0306,-4.0022,-4.0021,-4.002,-4.002,0,-3.9253,-3.9348,-3.9427,-3.9519,-3.9578,-3.9683,-3.9705,-3.9764,-3.976,-3.9783,-3.991,-3.9963,-4.0054,-4.009,-4.0088,-4.0243,-4.0219,-4.0184,-4.0116,-4.0251,-4.0308,-4.0331,-4.0029,-4.0027,-4.0026,-4.0024,0,0,-3.9463,-3.9555,-3.9584,-3.9624,-3.9701,-3.9773,-3.9876,-3.9964,-4.0014,-4.008,-4.0166,-4.029,-4.0257,-4.0308,-4.031,-4.038,-4.0518,-4.0336,-4.0338,-4.0367,-4.069,-4.0715,-4.0742,-4.0504,-4.0509,-4.0512,-4.0683,0,-3.9634,-3.9815,-3.9823,-3.9988,-4.0074,-4.0049,-4.0139,-4.0194,-4.0218,-4.0294,-4.032,-4.0408,-4.0359,-4.0389,-4.0457,-4.0487,-4.0583,-4.0475,-4.0583,-4.0587,-4.0565,-4.0771,-4.0799,-4.0958,-4.0706,-4.0709,-4.0712,0,-3.9857,-3.9929,-4.0102,-4.0164,-4.02,-4.028,-4.036,-4.0434,-4.0496,-4.0508,-4.0564,-4.0555,-4.0659,-4.0588,-4.073,-4.0656,-4.0701,-4.0722,-4.0729,-4.0738,-4.0657,-4.0785,-4.1009,-4.1032,-4.0747,-4.0745,-4.0742,0,-3.9991,-4.0131,-4.0252,-4.0287,-4.0363,-4.0419,-4.0453,-4.0511,-4.0562,-4.0632,-4.0666,-4.0747,-4.0792,-4.0855,-4.0868,-4.0815,-4.101,-4.094,-4.1022,-4.1022,-4.1064,-4.1061,-4.1296,-4.1095,-4.1095,-4.1094,-4.1094,0,-4.018,-4.0287,-4.0312,-4.0387,-4.0505,-4.0512,-4.0628,-4.0658,-4.0709,-4.0788,-4.0772,-4.0846,-4.086,-4.0937,-4.0948,-4.1064,-4.1084,-4.1096,-4.1098,-4.1097,-4.1095,-4.1126,-4.1114,-4.11,-4.1099,-4.1098,-4.1097,0,-4.0349,-4.0371,-4.0501,-4.0561,-4.0579,-4.0663,-4.0714,-4.0784,-4.0805,-4.0905,-4.0929,-4.0963,-4.1052,-4.1072,-4.1179,-4.1186,-4.1322,-4.1313,-4.1301,-4.13,-4.138,-4.1372,-4.1642,-4.1677,-4.1454,-4.1456,-4.1458,0,-4.0468,-4.0549,-4.0618,-4.0669,-4.0705,-4.0789,-4.0841,-4.0851,-4.0906,-4.0981,-4.1042,-4.113,-4.12,-4.1344,-4.1378,-4.1459,-4.1451,-4.154,-4.1463,-4.1459,-4.145,-4.1445,-4.1452,-4.1555,-4.1557,-4.1559,-4.1561,0,-4.0676,-4.0682,-4.0758,-4.0838,-4.09,-4.0964,-4.1024,-4.1066,-4.1084,-4.1147,-4.1237,-4.1292,-4.14,-4.1486,-4.1567,-4.1601,-4.1584,-4.1584,-4.1607,-4.1607,-4.1596,-4.1601,-4.1339,-4.1578,-4.1576,-4.1575,-4.1574,-4.1573,-4.0823,-4.0893,-4.0951,-4.1035,-4.1081,-4.1137,-4.1206,-4.1235,-4.1311,-4.1399,-4.14,-4.1499,-4.1557,-4.1663,-4.1702,-4.1778,-4.1751,-4.1785,-4.1793,-4.1801,-4.1807,-4.1584,-4.1793,-4.1793,-4.1792,-4.1792,-4.1792,0,-4.1028,-4.1064,-4.1142,-4.1225,-4.1291,-4.1269,-4.1333,-4.139,-4.1477,-4.1532,-4.1601,-4.1705,-4.1788,-4.1827,-4.1909,-4.1963,-4.1957,-4.1984,-4.1979,-4.1987,-4.1828,-4.1799,-4.1987,-4.1987,-4.1987,-4.1987,-4.1987,-4.1987,-4.1143,-4.1259,-4.1272,-4.141,-4.1445,-4.1541,-4.158,-4.163,-4.1674,-4.179,-4.1859,-4.1884,-4.1932,-4.2017,-4.2092,-4.2101,-4.2132,-4.2162,-4.2168,-4.2018,-4.1999,-4.198,-4.1952,-4.2169,-4.217,-4.232,-4.2321,-4.2322]},{"header":{"parameterUnit":"m.s-1","parameterCategory":1,"la1":30.2991,"la2":30.254,"lo1":-89.0895,"lo2":-89.0444,"dy":0.0017,"dx":0.0017,"nx":28,"ny":28,"refTime":"2023-09-21T09:00:00:Z","depth":0,"parameterNumber":3,"parameterNumberName":"V-component_of_WINDS"},"data":[0,0,0,0,0,0,0,0,0,0,0,0,0,0,0,0,0,0,0,0,0,0,0,0,0,0,0,0,0,0,0,0,0,0,0,0,0,0,0,0,0,0,0,0,0,0,0,0,0,0,0,0,0,0,0,0,0,0,-1.6861,-1.6862,0,-1.6993,-1.6994,-1.6996,-1.7028,-1.7028,-1.7027,-1.7026,-1.7157,-1.7161,-1.7165,0,0,0,0,0,0,0,0,0,0,0,0,0,-1.6634,-1.6638,-1.6861,-1.6862,-1.6864,-1.6992,-1.6994,-1.6996,-1.7029,-1.7028,-1.7027,-1.7026,-1.7155,-1.716,-1.7166,0,0,0,0,0,0,0,0,0,0,0,0,0,-1.6746,-1.6639,-1.686,-1.6896,-1.69,-1.6992,-1.6994,-1.6996,-1.7029,-1.7028,-1.7026,-1.7025,-1.7154,-1.716,-1.7166,-1.7231,0,0,-1.7186,-1.7189,0,0,0,0,0,0,0,0,-1.6739,-1.6754,-1.6889,-1.6894,-1.6899,-1.6993,-1.6962,-1.7075,-1.7029,-1.698,-1.7026,-1.7025,-1.7103,-1.7113,-1.7141,-1.7237,-1.7242,-1.7186,-1.719,-1.7193,-1.7195,0,0,0,0,0,0,0,-1.6731,-1.6748,-1.6913,-1.6891,-1.6897,-1.6904,-1.6919,-1.6984,-1.7047,-1.6984,-1.6987,-1.7002,-1.7105,-1.7135,-1.7144,-1.7244,-1.7186,-1.7192,-1.7196,-1.7198,-1.7401,-1.7402,0,0,0,0,0,0,-1.6718,-1.6742,-1.6909,-1.6917,-1.6814,-1.6909,-1.6925,-1.6964,-1.7046,-1.7058,-1.7003,-1.7003,-1.7124,-1.7137,-1.7149,-1.7231,-1.7193,-1.7199,-1.7203,-1.7399,-1.7401,-1.7403,0,0,0,0,0,0,-1.6713,-1.6733,-1.6903,-1.683,-1.6852,-1.6914,-1.6957,-1.6967,-1.6996,-1.7061,-1.7072,-1.7022,-1.7124,-1.714,-1.7211,-1.7236,-1.7202,-1.7208,-1.7397,-1.74,-1.7402,-1.7394,0,0,0,0,0,0,-1.6706,-1.6731,-1.6756,-1.683,-1.6856,-1.6964,-1.6959,-1.6971,-1.7008,-1.7009,-1.7081,-1.7091,-1.7124,-1.7201,-1.7217,-1.7244,-1.7213,-1.7395,-1.7398,-1.7401,-1.7393,-1.7396,-1.7399,0,0,0,0,0,-1.6698,-1.6748,-1.6758,-1.6778,-1.689,-1.6965,-1.698,-1.7017,-1.701,-1.7036,-1.7077,-1.7089,-1.723,-1.7208,-1.7226,-1.7255,-1.7394,-1.7398,-1.7401,-1.7391,-1.7395,-1.7399,0,0,0,0,0,0,-1.6673,-1.6758,-1.677,-1.6845,-1.6898,-1.6971,-1.7005,-1.702,-1.7075,-1.7074,-1.7117,-1.7133,-1.7201,-1.7235,-1.7209,-1.7323,-1.7312,-1.7319,-1.7298,-1.7303,-1.7306,-1.7297,-1.7218,0,0,0,0,0,-1.6677,-1.6732,-1.6803,-1.6862,-1.6888,-1.6942,-1.6976,-1.7001,-1.7056,-1.7078,-1.7125,-1.7178,-1.7234,-1.727,-1.7325,-1.7397,-1.7414,-1.7427,-1.743,-1.7432,-1.7438,-1.748,-1.7487,-1.7414,-1.7414,-1.7414,0,0,-1.6684,-1.6737,-1.6769,-1.6859,-1.6902,-1.6958,-1.696,-1.7018,-1.706,-1.7087,-1.7158,-1.7193,-1.7255,-1.7327,-1.7361,-1.7357,-1.7462,-1.7437,-1.7438,-1.7443,-1.7484,-1.7491,-1.7497,-1.7417,-1.7416,-1.7416,0,0,-1.6727,-1.6772,-1.6828,-1.6872,-1.6939,-1.6974,-1.6987,-1.7058,-1.7084,-1.7155,-1.7177,-1.7226,-1.7322,-1.7366,-1.74,-1.746,-1.7473,-1.7477,-1.7494,-1.7534,-1.7539,-1.7545,-1.7567,-1.7574,-1.7482,-1.7482,-1.7482,0,-1.6727,-1.6813,-1.6853,-1.6912,-1.695,-1.6979,-1.7035,-1.7075,-1.7156,-1.7182,-1.7177,-1.7299,-1.7342,-1.7426,-1.744,-1.7467,-1.7483,-1.7469,-1.7536,-1.7541,-1.7547,-1.7569,-1.7577,-1.7482,-1.7482,-1.7482,-1.7482,0,-1.681,-1.6869,-1.6906,-1.6986,-1.7028,-1.7085,-1.7133,-1.7171,-1.7192,-1.7228,-1.7301,-1.7354,-1.7421,-1.7443,-1.7463,-1.7529,-1.7525,-1.7527,-1.7518,-1.7553,-1.7574,-1.7583,-1.7482,-1.7482,-1.7482,-1.7482,0,0,-1.684,-1.6943,-1.6956,-1.6993,-1.7069,-1.7115,-1.7173,-1.724,-1.7272,-1.7327,-1.7377,-1.7458,-1.7461,-1.75,-1.7525,-1.7561,-1.7606,-1.7559,-1.7561,-1.7567,-1.7683,-1.7682,-1.7691,-1.7615,-1.7617,-1.7618,-1.7678,0,-1.6893,-1.6999,-1.7038,-1.7124,-1.718,-1.7208,-1.7258,-1.731,-1.7345,-1.7397,-1.7435,-1.7492,-1.7491,-1.7515,-1.7551,-1.7593,-1.763,-1.7589,-1.7661,-1.7664,-1.7646,-1.7702,-1.77,-1.7754,-1.7687,-1.7688,-1.7689,0,-1.6968,-1.7026,-1.7119,-1.719,-1.7214,-1.7259,-1.7325,-1.7373,-1.7433,-1.7456,-1.75,-1.7524,-1.7585,-1.7571,-1.7656,-1.7627,-1.7659,-1.7684,-1.7687,-1.7695,-1.7679,-1.7713,-1.7772,-1.7781,-1.7703,-1.7701,-1.7701,0,-1.6982,-1.7082,-1.7152,-1.7182,-1.7266,-1.7297,-1.7334,-1.7392,-1.743,-1.7487,-1.7512,-1.7575,-1.7609,-1.7656,-1.7696,-1.7682,-1.7777,-1.7766,-1.7798,-1.7797,-1.7817,-1.7815,-1.7884,-1.7836,-1.7836,-1.7836,-1.7836,0,-1.7036,-1.7092,-1.7159,-1.7202,-1.7265,-1.7309,-1.737,-1.7408,-1.746,-1.7509,-1.7537,-1.7583,-1.7632,-1.7684,-1.7715,-1.7781,-1.7796,-1.7816,-1.7824,-1.7814,-1.7812,-1.7836,-1.7833,-1.7838,-1.7838,-1.7837,-1.7837,0,-1.7062,-1.711,-1.7187,-1.7261,-1.7281,-1.7324,-1.7387,-1.7429,-1.7466,-1.7529,-1.7546,-1.7603,-1.7666,-1.771,-1.779,-1.7811,-1.7883,-1.7889,-1.7863,-1.7867,-1.7897,-1.7893,-1.7983,-1.7998,-1.794,-1.794,-1.7941,0,-1.7095,-1.7139,-1.7218,-1.7254,-1.7291,-1.7349,-1.7389,-1.7433,-1.7474,-1.7545,-1.7579,-1.7644,-1.7699,-1.7798,-1.7846,-1.7907,-1.7916,-1.7944,-1.7926,-1.7915,-1.7918,-1.7915,-1.792,-1.7946,-1.7947,-1.7947,-1.7947,0,-1.7147,-1.7169,-1.7226,-1.7292,-1.734,-1.7393,-1.7447,-1.7475,-1.7528,-1.7572,-1.7638,-1.768,-1.7764,-1.7828,-1.7895,-1.7931,-1.7948,-1.7953,-1.7964,-1.7954,-1.7938,-1.7948,-1.7871,-1.795,-1.795,-1.795,-1.795,-1.795,-1.7178,-1.7219,-1.7282,-1.7345,-1.7391,-1.7441,-1.7484,-1.7527,-1.7583,-1.7656,-1.7678,-1.7746,-1.7805,-1.7897,-1.7934,-1.7988,-1.7986,-1.8001,-1.8005,-1.8009,-1.8009,-1.7929,-1.8,-1.8,-1.8,-1.8,-1.8,0,-1.7232,-1.7275,-1.7332,-1.7408,-1.7458,-1.7471,-1.7532,-1.7572,-1.7633,-1.7687,-1.7741,-1.7817,-1.788,-1.7933,-1.7998,-1.8031,-1.804,-1.8046,-1.8045,-1.8053,-1.8006,-1.7991,-1.8038,-1.8038,-1.8038,-1.8038,-1.8038,-1.8038,-1.7267,-1.7337,-1.7366,-1.746,-1.7501,-1.757,-1.7603,-1.765,-1.7693,-1.7778,-1.7831,-1.7866,-1.792,-1.7989,-1.8048,-1.8062,-1.8085,-1.8089,-1.8105,-1.806,-1.8056,-1.8052,-1.8038,-1.8093,-1.8094,-1.8147,-1.8148,-1.8148]}]]